TimeEST,TemperatureF,Dew PointF,Humidity,Sea Level PressureIn,VisibilityMPH,Wind Direction,Wind SpeedMPH,Gust SpeedMPH,PrecipitationIn,Events,Conditions,WindDirDegrees,DateUTC
12:54 AM,-9999,-9999,N/A,30.10,10.0,SSE,3.5,-,N/A,,Clear,160,2013-12-16 05:54:00
1:54 AM,-9999,-9999,N/A,30.10,10.0,Calm,Calm,-,N/A,,Clear,0,2013-12-16 06:54:00
2:54 AM,-9999,-9999,N/A,30.10,9.0,Calm,Calm,-,N/A,,Clear,0,2013-12-16 07:54:00
3:54 AM,-9999,-9999,N/A,30.11,10.0,Calm,Calm,-,N/A,,Clear,0,2013-12-16 08:54:00
4:54 AM,-9999,-9999,N/A,30.12,9.0,Calm,Calm,-,N/A,,Clear,0,2013-12-16 09:54:00
5:54 AM,-9999,-9999,N/A,30.12,10.0,Calm,Calm,-,N/A,,Clear,0,2013-12-16 10:54:00
6:54 AM,-9999,-9999,N/A,30.13,8.0,Calm,Calm,-,N/A,,Clear,0,2013-12-16 11:54:00
7:54 AM,-9999,-9999,N/A,30.14,6.0,SW,3.5,-,N/A,,Haze,230,2013-12-16 12:54:00
8:54 AM,-9999,-9999,N/A,30.16,10.0,WSW,3.5,-,N/A,,Clear,240,2013-12-16 13:54:00
9:54 AM,-9999,-9999,N/A,30.17,10.0,South,4.6,-,N/A,,Clear,190,2013-12-16 14:54:00
10:54 AM,46.0,30.9,56,30.16,10.0,SSW,4.6,-,N/A,,Clear,210,2013-12-16 15:54:00
11:54 AM,50.0,30.9,48,30.13,10.0,WSW,4.6,-,N/A,,Clear,250,2013-12-16 16:54:00
12:54 PM,54.0,30.9,41,30.11,10.0,West,4.6,-,N/A,,Clear,280,2013-12-16 17:54:00
1:54 PM,55.0,30.9,40,30.09,10.0,SW,4.6,-,N/A,,Clear,230,2013-12-16 18:54:00
2:54 PM,72.0,30.0,21,30.09,10.0,Variable,3.5,-,N/A,,Clear,0,2013-12-16 19:54:00
3:54 PM,73.9,30.9,21,30.10,10.0,SSW,8.1,-,N/A,,Clear,200,2013-12-16 20:54:00
4:54 PM,68.0,32.0,26,30.11,10.0,South,4.6,-,N/A,,Clear,190,2013-12-16 21:54:00
5:54 PM,55.9,33.1,42,30.11,10.0,Calm,Calm,-,N/A,,Clear,0,2013-12-16 22:54:00
6:54 PM,59.0,33.1,38,30.12,10.0,SSW,4.6,-,N/A,,Clear,200,2013-12-16 23:54:00
7:54 PM,55.9,33.1,42,30.13,10.0,SSW,3.5,-,N/A,,Clear,200,2013-12-17 00:54:00
8:54 PM,62.1,32.0,32,30.12,10.0,SSW,6.9,-,N/A,,Clear,200,2013-12-17 01:54:00
9:54 PM,55.9,30.9,39,30.12,10.0,SW,4.6,-,N/A,,Clear,220,2013-12-17 02:54:00
10:54 PM,55.9,30.0,37,30.13,10.0,SW,3.5,-,N/A,,Clear,230,2013-12-17 03:54:00
11:54 PM,55.9,28.9,36,30.13,10.0,WSW,4.6,-,N/A,,Clear,240,2013-12-17 04:54:00